Location: Unspecified
(0.0000°N, 0.0000°E)
Time: 13:37:28
(UTC+02:00)

Cosmos 1536 - Visible Passes

Search period start: 27 August 2016 00:00
Search period end: 06 September 2016 00:00
Orbit: 543 x 561 km, 82.5° (Epoch: 26 August)

Date Brightness Start Highest point End Pass type
(mag) Time Alt. Az. Time Alt. Az. Time Alt. Az.
27 Aug 2.9 20:27:20 10° S 20:31:19 81° W 20:35:18 10° N visible
28 Aug 3.2 20:23:42 10° S 20:27:40 69° W 20:31:37 10° N visible
29 Aug 3.6 20:20:05 10° SSW 20:24:00 58° W 20:27:55 10° N visible
30 Aug 4.0 20:16:29 10° SSW 20:20:20 49° W 20:24:11 10° N visible
05 Sep 6.5 06:22:53 10° ENE 06:24:00 11° E 06:25:07 10° ESE visible
